FW6720 Weather Reports


Display with metric or nautical units.
time (UTC)temp
F
wind
direction
speed
MPH
gust
MPH
rain 1hr
in
rain 24hr
in
rain mn
in
humidity
%
barometer
mb
20260502192615 64 40 0.0 0.0 0.00 0.00 0.00 63 1017.3
20260502192113 65 53 0.0 0.0 0.00 0.00 0.00 63 1017.2
20260502191610 65 60 0.0 0.0 0.00 0.00 0.00 62 1017.1
20260502191108 65 5 0.0 0.0 0.00 0.00 0.00 63 1016.9
20260502190605 65 332 0.0 0.0 0.00 0.00 0.00 61 1017.0
20260502185556 65 336 0.0 0.0 0.00 0.00 0.00 65 1017.3
20260502185054 65 148 0.0 0.0 0.00 0.00 0.00 62 1017.2
20260502184550 63 149 0.0 0.0 0.00 0.00 0.00 63 1017.4
20260502184045 63 149 0.0 0.0 0.00 0.00 0.00 65 1017.5
20260502183542 62 150 0.0 0.0 0.00 0.00 0.00 64 1017.5
20260502183033 63 59 0.0 1.0 0.00 0.00 0.00 66 1017.6
20260502182527 62 56 0.0 0.0 0.00 0.00 0.00 66 1017.6
20260502182023 62 57 1.0 1.0 0.00 0.00 0.00 66 1017.7
20260502181521 61 56 0.0 0.0 0.00 0.00 0.00 67 1017.6
20260502181020 60 56 0.0 0.0 0.00 0.00 0.00 68 1017.6
20260502180517 61 80 0.0 0.0 0.00 0.00 0.00 69 1018.0
20260502170436 52 11 0.0 0.0 0.00 0.00 0.00 85 1018.4
20260502163919 52 8 0.0 0.0 0.00 0.00 0.00 80 1018.0
20260502163415 52 8 0.0 0.0 0.00 0.00 0.00 80 1018.2
20260502162914 51 8 0.0 0.0 0.00 0.00 0.00 80 1018.4
20260502162410 51 8 0.0 0.0 0.00 0.00 0.00 80 1018.3
20260502161907 51 8 0.0 0.0 0.00 0.00 0.00 81 1018.5
20260502161403 51 8 0.0 0.0 0.00 0.00 0.00 82 1018.5
20260502160901 50 8 0.0 0.0 0.00 0.00 0.00 84 1018.6
20260502160359 50 8 0.0 0.0 0.00 0.00 0.00 86 1018.6
20260502152340 45 8 0.0 0.0 0.00 0.00 0.00 90 1018.3
20260502151838 45 8 0.0 0.0 0.00 0.00 0.00 92 1018.5
20260502151334 45 8 0.0 0.0 0.00 0.00 0.00 92 1018.6
20260502150832 44 8 0.0 0.0 0.00 0.00 0.00 93 1018.6
20260502150328 44 8 0.0 0.0 0.00 0.00 0.00 93 1018.4
20260502130716 41 10 0.0 0.0 0.00 0.00 0.00 93 1018.8
20260502130214 41 10 0.0 0.0 0.00 0.00 0.00 93 1018.5
20260502123700 42 10 0.0 0.0 0.00 0.00 0.00 92 1018.6
20260502123156 42 10 0.0 0.0 0.00 0.00 0.00 92 1018.6
20260502122653 42 10 0.0 0.0 0.00 0.00 0.00 92 1018.4
20260502122149 42 10 0.0 0.0 0.00 0.00 0.00 92 1018.4
20260502121648 42 10 0.0 0.0 0.00 0.00 0.00 92 1018.5
20260502121145 42 10 0.0 0.0 0.00 0.00 0.00 91 1018.5
20260502120641 42 10 0.0 0.0 0.00 0.00 0.00 91 1018.6
20260502120138 42 10 0.0 0.0 0.00 0.00 0.00 91 1018.5
20260502115636 42 10 0.0 0.0 0.00 0.00 0.00 91 1018.7
20260502115131 42 10 0.0 0.0 0.00 0.00 0.00 91 1018.8
20260502114627 42 10 0.0 0.0 0.00 0.00 0.00 91 1018.7
20260502114125 42 10 0.0 0.0 0.00 0.00 0.00 90 1018.8
20260502113623 42 10 0.0 0.0 0.00 0.00 0.00 90 1018.5
20260502113121 42 10 0.0 0.0 0.00 0.00 0.00 90 1018.3
20260502112618 42 10 0.0 0.0 0.00 0.00 0.00 89 1018.4
20260502112115 43 10 0.0 0.0 0.00 0.00 0.00 89 1018.2
20260502111613 43 10 0.0 0.0 0.00 0.00 0.00 89 1017.9
20260502111110 43 10 0.0 0.0 0.00 0.00 0.00 89 1017.9
20260502110608 43 10 0.0 0.0 0.00 0.00 0.00 88 1018.1
20260502110105 43 10 0.0 0.0 0.00 0.00 0.00 88 1018.0
20260502105603 43 10 0.0 0.0 0.00 0.00 0.00 87 1017.9
20260502105100 43 10 0.0 0.0 0.00 0.00 0.00 87 1018.2
20260502104556 43 10 0.0 0.0 0.00 0.00 0.00 88 1018.3
20260502104054 44 10 0.0 0.0 0.00 0.00 0.00 87 1018.3
20260502103552 44 10 0.0 0.0 0.00 0.00 0.00 87 1018.3
20260502103050 44 10 0.0 0.0 0.00 0.00 0.00 87 1018.2
20260502102545 44 10 0.0 0.0 0.00 0.00 0.00 87 1018.3
20260502102043 44 10 0.0 0.0 0.00 0.00 0.00 86 1018.7
20260502101541 44 10 0.0 0.0 0.00 0.00 0.00 86 1018.5
20260502101039 44 10 0.0 0.0 0.00 0.00 0.00 86 1018.7
20260502100537 44 10 0.0 0.0 0.00 0.00 0.00 86 1018.8
20260502091512 46 10 0.0 0.0 0.00 0.00 0.00 85 1019.4
20260502091009 46 10 0.0 0.0 0.00 0.00 0.00 84 1019.3
20260502090506 46 10 0.0 0.0 0.00 0.00 0.00 84 1019.3
20260502071400 49 10 0.0 0.0 0.00 0.00 0.00 79 1019.2
20260502070858 49 10 0.0 0.0 0.00 0.00 0.00 78 1019.5
20260502070356 49 10 0.0 0.0 0.00 0.00 0.00 78 1019.2
20260502065855 50 10 0.0 0.0 0.00 0.00 0.00 78 1019.5
20260502065352 50 10 0.0 0.0 0.00 0.00 0.00 78 1019.4
20260502064850 50 10 0.0 0.0 0.00 0.00 0.00 78 1019.3
20260502064348 50 10 0.0 0.0 0.00 0.00 0.00 76 1019.3
20260502063845 50 10 0.0 0.0 0.00 0.00 0.00 75 1019.2
20260502063343 50 10 0.0 0.0 0.00 0.00 0.00 77 1019.1
20260502062840 50 10 0.0 0.0 0.00 0.00 0.00 77 1019.4
20260502062337 50 10 0.0 0.0 0.00 0.00 0.00 76 1019.4
20260502061836 50 10 0.0 0.0 0.00 0.00 0.00 76 1019.3
20260502061333 50 10 0.0 0.0 0.00 0.00 0.00 75 1019.2
20260502060829 50 10 0.0 0.0 0.00 0.00 0.00 75 1019.0
20260502060324 50 10 0.0 0.0 0.00 0.00 0.00 75 1019.1
20260502055822 50 10 0.0 0.0 0.00 0.00 0.00 77 1019.0
20260502055320 50 10 0.0 0.0 0.00 0.00 0.00 76 1019.0
20260502054819 50 10 0.0 0.0 0.00 0.00 0.00 76 1018.9
20260502054316 51 10 0.0 0.0 0.00 0.00 0.00 76 1018.8
20260502053814 51 10 0.0 0.0 0.00 0.00 0.00 75 1019.0
20260502053311 51 10 0.0 0.0 0.00 0.00 0.00 76 1018.9
20260502052809 51 10 0.0 0.0 0.00 0.00 0.00 74 1019.0
20260502052306 51 10 0.0 0.0 0.00 0.00 0.00 73 1019.0
20260502051804 51 10 0.0 0.0 0.00 0.00 0.00 73 1018.7
20260502051303 52 10 0.0 0.0 0.00 0.00 0.00 72 1018.8
20260502050758 52 10 0.0 0.0 0.00 0.00 0.00 74 1018.8
20260502050254 52 10 0.0 0.0 0.00 0.00 0.00 74 1018.7
20260502045752 52 10 0.0 0.0 0.00 0.00 0.00 74 1018.7
20260502045248 52 10 0.0 0.0 0.00 0.00 0.00 73 1018.6
20260502044745 52 10 0.0 0.0 0.00 0.00 0.00 72 1018.6
20260502044241 53 10 0.0 0.0 0.00 0.00 0.00 69 1018.6
20260502043739 53 10 0.0 0.0 0.00 0.00 0.00 70 1018.6
20260502043236 53 10 0.0 0.0 0.00 0.00 0.00 71 1018.7
20260502042736 53 10 0.0 0.0 0.00 0.00 0.00 71 1018.7
20260502042233 53 10 0.0 0.0 0.00 0.00 0.00 70 1018.6
20260502041731 53 10 0.0 0.0 0.00 0.00 0.00 71 1018.6
20260502041228 54 10 0.0 0.0 0.00 0.00 0.00 70 1018.8
20260502040725 54 10 0.0 0.0 0.00 0.00 0.00 70 1018.6
20260502040222 54 10 0.0 0.0 0.00 0.00 0.00 69 1018.6
20260502035718 55 10 0.0 0.0 0.00 0.00 0.00 70 1018.6
20260502035215 55 10 0.0 0.0 0.00 0.00 0.00 65 1018.5
20260502034712 55 10 0.0 0.0 0.00 0.00 0.00 67 1018.7
20260502034210 56 10 0.0 0.0 0.00 0.00 0.00 67 1018.5
20260502033708 56 10 0.0 0.0 0.00 0.00 0.00 67 1018.3
20260502033206 57 10 0.0 0.0 0.00 0.00 0.00 65 1018.5
20260502032702 58 10 0.0 0.0 0.00 0.00 0.00 61 1018.2
20260502032158 58 10 0.0 0.0 0.00 0.00 0.00 60 1018.5
20260502031656 58 10 0.0 0.0 0.00 0.00 0.00 58 1018.1
20260502031154 59 9 0.0 0.0 0.00 0.00 0.00 61 1018.2
20260502030652 59 9 0.0 0.0 0.00 0.00 0.00 56 1018.0
20260502030150 59 9 0.0 0.0 0.00 0.00 0.00 61 1018.1
20260502025647 59 9 0.0 0.0 0.00 0.00 0.00 59 1018.2
20260502025145 60 9 0.0 0.0 0.00 0.00 0.00 59 1017.9
20260502024642 60 8 0.0 0.0 0.00 0.00 0.00 55 1017.7
20260502024140 60 8 0.0 0.0 0.00 0.00 0.00 61 1017.9
20260502023638 61 8 0.0 0.0 0.00 0.00 0.00 58 1017.6
20260502023135 61 8 0.0 0.0 0.00 0.00 0.00 54 1017.6
20260502022632 62 8 0.0 0.0 0.00 0.00 0.00 55 1017.5
20260502022129 62 8 0.0 0.0 0.00 0.00 0.00 54 1017.6
20260502021626 62 8 0.0 0.0 0.00 0.00 0.00 56 1017.5
20260502021123 62 8 0.0 0.0 0.00 0.00 0.00 57 1017.5
20260502020621 63 8 0.0 0.0 0.00 0.00 0.00 52 1017.5
20260502020117 63 8 0.0 0.0 0.00 0.00 0.00 55 1017.6
20260502015615 63 8 0.0 0.0 0.00 0.00 0.00 54 1017.6
20260502015111 63 8 0.0 0.0 0.00 0.00 0.00 51 1017.2
20260502014609 64 8 0.0 0.0 0.00 0.00 0.00 55 1017.6
20260502014106 64 8 0.0 0.0 0.00 0.00 0.00 52 1017.4
20260502013601 64 8 0.0 0.0 0.00 0.00 0.00 52 1017.1
20260502013057 65 8 0.0 0.0 0.00 0.00 0.00 51 1017.2
20260502012555 65 8 0.0 0.0 0.00 0.00 0.00 56 1017.2
20260502012053 65 8 0.0 0.0 0.00 0.00 0.00 53 1017.1
20260502011549 66 8 0.0 0.0 0.00 0.00 0.00 54 1017.2
20260502011045 66 8 0.0 0.0 0.00 0.00 0.00 51 1017.1
20260502010543 66 8 0.0 0.0 0.00 0.00 0.00 53 1016.9
20260502010039 67 8 0.0 0.0 0.00 0.00 0.00 49 1017.5
20260502005537 67 8 0.0 0.0 0.00 0.00 0.00 51 1017.2
20260502005035 68 8 1.0 1.0 0.00 0.00 0.00 51 1017.0
20260502004530 68 8 0.0 0.0 0.00 0.00 0.00 48 1016.9
20260502004027 68 8 0.0 0.0 0.00 0.00 0.00 49 1017.0
20260502003525 68 8 0.0 0.0 0.00 0.00 0.00 48 1016.7
20260502003021 68 8 0.0 0.0 0.00 0.00 0.00 50 1016.9
20260502002518 69 8 0.0 0.0 0.00 0.00 0.00 51 1016.8
20260502002015 69 8 0.0 0.0 0.00 0.00 0.00 50 1016.8
20260502001513 69 8 0.0 0.0 0.00 0.00 0.00 49 1017.0
20260502001010 70 9 0.0 0.0 0.00 0.00 0.00 50 1016.9
20260502000509 70 9 0.0 0.0 0.00 0.00 0.00 53 1016.5
20260502000005 71 9 0.0 0.0 0.00 0.00 0.00 52 1016.7
20260501235501 71 10 0.0 0.0 0.00 0.00 0.00 50 1016.7
20260501234955 70 10 0.0 0.0 0.00 0.00 0.00 52 1016.7
20260501234452 70 14 0.0 0.0 0.00 0.00 0.00 52 1016.6
20260501233951 71 9 0.0 0.0 0.00 0.00 0.00 52 1016.5
20260501233449 71 9 0.0 0.0 0.00 0.00 0.00 51 1016.5
20260501232944 72 13 0.0 0.0 0.00 0.00 0.00 49 1016.5
20260501232441 71 13 0.0 0.0 0.00 0.00 0.00 49 1016.6
20260501231938 71 15 0.0 0.0 0.00 0.00 0.00 50 1016.6
20260501231437 71 9 0.0 0.0 0.00 0.00 0.00 51 1016.8
20260501230935 71 9 0.0 1.0 0.00 0.00 0.00 50 1016.7
20260501230434 71 14 0.0 0.0 0.00 0.00 0.00 50 1016.5
20260501225930 71 10 0.0 0.0 0.00 0.00 0.00 51 1016.8
20260501225428 72 9 0.0 0.0 0.00 0.00 0.00 51 1016.8
20260501224924 73 8 0.0 1.0 0.00 0.00 0.00 49 1017.0
20260501224421 73 14 0.0 0.0 0.00 0.00 0.00 50 1016.9
20260501223918 73 12 0.0 0.0 0.00 0.00 0.00 50 1017.1
20260501223414 74 8 0.0 0.0 0.00 0.00 0.00 48 1017.0
20260501222910 76 9 1.0 2.0 0.00 0.00 0.00 45 1017.0
20260501222408 75 15 0.0 0.0 0.00 0.00 0.00 47 1016.9
20260501221904 75 27 0.0 0.0 0.00 0.00 0.00 47 1017.0
20260501221401 75 27 0.0 0.0 0.00 0.00 0.00 48 1016.9
20260501220859 75 25 0.0 0.0 0.00 0.00 0.00 47 1017.3
20260501220356 76 25 0.0 1.0 0.00 0.00 0.00 44 1016.9
20260501215852 76 26 0.0 0.0 0.00 0.00 0.00 47 1017.1
20260501215349 76 27 1.0 1.0 0.00 0.00 0.00 44 1017.0
20260501214844 75 25 0.0 0.0 0.00 0.00 0.00 45 1017.3
20260501214340 74 34 0.0 0.0 0.00 0.00 0.00 46 1017.1
20260501213836 75 31 1.0 2.0 0.00 0.00 0.00 45 1017.2
20260501213333 74 33 0.0 0.0 0.00 0.00 0.00 47 1017.2
20260501212829 74 51 0.0 0.0 0.00 0.00 0.00 46 1017.0
20260501212326 73 35 0.0 0.0 0.00 0.00 0.00 48 1017.0
20260501211823 74 63 0.0 0.0 0.00 0.00 0.00 46 1017.2
20260501211320 73 35 0.0 0.0 0.00 0.00 0.00 48 1017.2
20260501210817 73 33 0.0 0.0 0.00 0.00 0.00 48 1017.2
20260501210314 73 29 0.0 0.0 0.00 0.00 0.00 49 1017.3
20260501205810 73 56 0.0 0.0 0.00 0.00 0.00 51 1017.3
20260501205307 73 20 0.0 1.0 0.00 0.00 0.00 49 1017.4
20260501204804 73 58 0.0 0.0 0.00 0.00 0.00 47 1017.5
20260501204300 73 59 0.0 1.0 0.00 0.00 0.00 45 1017.7
20260501203756 73 346 0.0 0.0 0.00 0.00 0.00 45 1017.4
20260501203254 73 25 0.0 0.0 0.00 0.00 0.00 45 1017.6
20260501202751 73 24 1.0 3.0 0.00 0.00 0.00 43 1017.7
20260501202247 73 20 0.0 1.0 0.00 0.00 0.00 42 1017.7
20260501201744 73 22 0.0 0.0 0.00 0.00 0.00 39 1018.0
20260501201241 73 24 1.0 1.0 0.00 0.00 0.00 38 1017.7
20260501200738 74 24 0.0 2.0 0.00 0.00 0.00 38 1018.0
20260501200235 73 32 0.0 0.0 0.00 0.00 0.00 45 1018.1
20260501195732 73 33 0.0 0.0 0.00 0.00 0.00 42 1018.0
20260501195228 73 32 0.0 0.0 0.00 0.00 0.00 43 1017.9
20260501194725 73 33 0.0 0.0 0.00 0.00 0.00 41 1018.0
20260501194220 72 50 0.0 0.0 0.00 0.00 0.00 45 1018.1
20260501193711 71 66 0.0 0.0 0.00 0.00 0.00 43 1018.0
20260501193210 72 19 0.0 0.0 0.00 0.00 0.00 45 1018.0